[Date Prev][Date Next][Thread Prev][Thread Next][Date Index][Thread Index]

[jamsat-news:1121] jas2info #149



========================   最新情報   ==============================

        Last updated :Fri.16-Jul.-1999 11:30 (JST) #149

====================================================================
   
     衛星情報 FOシリーズの軌道要素、テレメトリ、QSOの状況等を
   まとめてみました.

  1)  FO−29(ふじ3号)は、7月15日(木)14:54(JST)の
     パスではJARLのホムページの「ふじ3号」のスケジュールどうりJAアナログ
   モードで運用されていました. 
       
 ■ 軌道要素1:「jamsat−keps:901」より 
              SB KEPS @ AMSAT  $ORB99190.N
       2Line Orbital Elements 99190.AMSAT

 HR AMSAT ORBITAL ELEMENTS FOR AMATEUR SATELLITES IN NASA FORMAT
 FROM WA5QGD FORT WORTH,TX July 9, 1999
 SEND SUBSCRIBE/UNSUBSCRIBE TO majordomo@amsat.org ONLY
 BID: ORB99190.N
  
 DECODE 2-LINE ELSETS WITH THE FOLLOWING KEY:
 1 AAAAAU 00  0  0 BBBBB.BBBBBBBB  .CCCCCCCC  00000-0  00000-0 0  DDDZ
 2 AAAAA EEE.EEEE FFF.FFFF GGGGGGG HHH.HHHH III.IIII JJ.JJJJJJJJKKKKKZ
 KEY: A-CATALOGNUM B-EPOCHTIME C-DECAY D-ELSETNUM E-INCLINATION F-RAAN
 G-ECCENTRICITY H-ARGPERIGEE I-MNANOM J-MNMOTION K-ORBITNUM Z-CHECKSUM

 TO ALL RADIO AMATEURS BT

  FO-29
  1 24278U 96046B   99187.88614629  .00000094  00000-0  13070-3 0  2570
  2 24278  98.5647 136.4056 0352061  43.2581 319.5639 13.52672743142473 

 ■ 軌道要素2:「jamsat−keps:902」より                         
         SB KEPS @ AMSAT  $ORB99190.O
         Orbital Elements  99190.OSCAR

 HR AMSAT ORBITAL ELEMENTS FOR OSCAR SATELLITES
 FROM WA5QGD FORT WORTH,TX July 9, 1999
 SEND SUBSCRIBE/UNSUBSCRIBE TO majordomo@amsat.org ONLY
 BID: ORB99190.O
 TO ALL RADIO AMATEURS BT
 
  Satellite: FO-29
 Catalog number: 24278
 Epoch time:      99187.88614629
 Element set:     257
 Inclination:       98.5647 deg
 RA of node:       136.4056 deg
 Eccentricity:    0.0352061
 Arg of perigee:    43.2581 deg
 Mean anomaly:     319.5639 deg
 Mean motion:   13.52672743 rev/day
 Decay rate:        9.4e-07 rev/day^2
 Epoch rev:           14247
 Checksum:              348
 
 -----------------------------------------------------------
  2)FO−29(ふじ3号)の 7月15日(木)の14:54のパスでは
  JAアナログモードで運用されておりました.  

  AS14360C  15Jul99
  JST 14:54 - 15:06
  Freq. 435.805 − 435.787MHz ( C W )

 HI HI AE C7 88 55 07 60 FF 0D 00 1D 74 71 74 4E 96 92 B0 8A C3 C2 C2 C1 BF 
 HI HI AE 07 88 55 0C 60 FF 0D 00 1D 42 7F 72 4F 9I 91 B0 92 C2 C2 C2 C1 BF 
 HI HI AE C7 88 55 12 60 FF 0D 00 1D TE 5B 79 60 94 91 9F 9A C2 C2 C2 C1 C0 
 HI HI AE C7 88 55 17 60 FF 0D 00 1D 49 5E 7A 60 94 91 A0 84 C2 C2 C3 C1 C0 
 HI HI AE 07 88 55 1D 60 FF 0D 00 1D 5B 6B 7C 4B 95 92 B0 73 C2 C2 C2 C1 C0 
 HI HI AE C7 88 55 02 60 FF 0D 00 1D 91 40 85 60 93 92 A0 82 C2 C2 C2 C1 C0 
 HI HI AE 07 88 55 07 60 FF 0D 00 1D 3C 3C 8D 61 95 91 B0 86 C2 C2 C2 C1 C0 
 HI HI AE C7 88 55 0D 60 FF 0D 00 1D 77 59 8B 60 94 90 B0 76 C2 C1 C2 C1 C0 
 HI HI AE C7 88 55 12 60 0A 0D 00 1D 81 2A 8F 60 95 93 B0 92 C2 C1 C2 C0 C0 
 HI HI AE 07 88 55 18 60 FF 0D 00 1D 49 33 95 3D 96 92 B1 8A C1 C1 C2 C0 C0 
 HI HI AE 07 88 55 1D 60 FF 0D 00 1D 87 4B 8A V1 95 92 B0 80 C1 C1 C2 C0 C0 
 HI HI AE 07 88 55 03 60 FF 0D 00 1D 72 1F 8A 43 95 92 B0 7A C1 C0 C1 C0 C0
 HI HI AE 07 88 55 08 60 FF 0D 00 1D 65 3B 8E 60 96 93 B0 9B C1 C0 C1 C0 C0 
 HI HI AE C7 88 55 0E 60 FF 0D 00 1D 8C 32 86 60 93 90 B0 8F C1 C0 C1 C0 C0 
 HI HI AE C7 88 55 13 60 FF 0D 00 1D 66 23 87 60 94 91 B0 78 C1 C0 C1 C0 C0
 HI HI AE C7 88 55 19 60 FF 0D 00 1D 85 44 8C 60 93 93 A2 80 C1 BF C1 C0 C0 
 HI HI AE C7 88 55 1E 60 FF 0D 00 1D 65 1E 84 60 94 91 B0
    
 3)テレメトリ換算値例  
  
  AS14360C  15Jul99
  JST 14:54 - 15:06
  Freq. 435.805 − 435.787MHz ( C W )

  JAアナログテレメトリの最初の行の換算値例
  
 テレメトリ   内   容	     換算値   単 位 

 3C	磁気センサーZ軸=	56862.7	nT
 3D	磁気センサX軸	=	55392.1	nT
 4A	太陽電池発生電流=	 1137.3	mA
 4B	B充放電電流	=	 -471.2	mA
 4C	B端子電圧	=	   16.1	V
 4D	B中間端子電圧	=	    7.0	V
 5A	バス電圧	=	   17.3	V
 5B	JTA送信電力	=	  798.9	mW
 5C 	構体温度1	=	    6.1	℃
 5D	構体温度2	=	    6.5	℃
 6A	構体温度3	=	    6.5	℃
 6B	構体温度4	=	    6.9	℃
 6C	Bセル温度	=	    7.7	℃
  
  *計算処理は OFFICE 97 を使用.
  
 ===================================================================================
  4)FO−20(ふじ2号)のCWテレメトリは6月15日(火)18:56(JST)の
     パスではテレメトリーが単一トーンの連続音から唸りを伴った連続音、さらにゆらぎの
     ある信号になり、いままでより若干信号が弱くなっていました.

 -----------------------------    FO-20 軌道要素   ----------------------------------
 
 ■ 軌道要素1 :出典は「ふじ3号」に同じ.
  
  FO-20
 1 20480U 90013C   99189.62252164 -.00000023  00000-0  12738-4 0  1534
 2 20480  99.0226  20.2629 0541116 115.9843 249.8024 12.83253753441089
 
 ■ 軌道要素2 :出典は「ふじ3号」に同じ.
               
  Satellite: FO-20
 Catalog number: 20480
 Epoch time:      99189.62252164
 Element set:     153
 Inclination:       99.0226 deg
 RA of node:        20.2629 deg
 Eccentricity:    0.0541116
 Arg of perigee:   115.9843 deg
 Mean anomaly:     249.8024 deg
 Mean motion:   12.83253753 rev/day
 Decay rate:       -2.3e-07 rev/day^2
 Epoch rev:           44108
 Checksum:              289
 
   ==================================================================================

 5)JARL のホームページに運用予定が記載されていましたのでご紹介します.
       ( http://www.jarl.or.jp/Japanese/3_Fuji/uy.htm )

        ■ ふじ3号/FO−29 ■  
  
   *** 運用予定について ***
    
   7月12日 〜 7月21日     アナログ運用
   7月21日 〜 7月26日     デジタル系1200bpsメールボックス運用
   7月26日 〜 8月09日     アナログ系運用
   
 なお,運用予定は都合により変更することがありますのでご了承願います.

 照会先 : lab@jarl.or.jp

 最新の情報はテレホンサービス(:03−3942−1000)をお聞きください。
   
  以後の運用に付きましては8月10日(火)にお知らせいたします。

        ■ ふじ2号/FO−20 ■      
            「ふじ2号」 現況                                                                                               
   JAS-1b/FO-20(ふじ2号)の不具合発生について
    JAS-1b(ふじ2号)のCWテレメトリ信号に,1997年10月12日12時
 (JST)の日本上空通過時,3桁の数字が繰り返されるはずが3個の長音の
  繰り返しとなっているという異常が発見されました。この不具合は次の通過時
  からは回復していましたが13日15時20分の通過時に再び観測されました。
  衛星のアナログ系中継モード動作は異常が無く,正常時のテレメトリ内容からは
  衛星の動作に異常は認められません。従って,直ちに衛星のミッションに影響す
  ることは無いと予想されますので,当面はアナログ系中継モードを継続します。
  衛星は既に打ち上げてから7年8ヶ月を経ておりますので,今後は監視を強化す
  る予定です。アマチュア各位のレポートをお待ちします.   
  
  以上  http://www.jarl.or.jp/Japanese/3_Fuji/fuji.htm
                                           
   =============   JAS-2 (ふじ3号)と現在までの情報   ===========
  
  A.電話によるふじ3号の運用情報
      社団法人日本アマチュア連盟によるサービス
           TEL .   03− 3942 − 1000
  B.アマチュア無線FAXサービス
      JARLによるふじ3号の軌道情報(オービットカレンダー)
         FAX No.  03− 3233 −0055
  C.WWWブラウザで情報を簡単に見れる人のためにJAS−2
     ふじ3号の衛星としての運用されるまでの名前)の概要、打ち上げ
     までの状況、運用中における状況を説明したホームページを紹介し
     ておきます.
     社団法人日本アマチュア無線連盟(JARL)のホームページ

          http://www.jarl.or.jp/Japanese/3_Fuji
 
     宇宙開発事業団(NASDA)ホームページ 
          http://www.nasda.go.jp/
         打上げ衛星 :地球観測プラットフォーム技術衛星(ADEOS) 
                       アマチュア衛星3号(JAS-2)
          http://yyy.tksc.nasda.go.jp/Home/Press/Press-j/jas-2_j.html        

  D.JAMSATによる軌道情報の活用
        JAMSATのホームページまたはjamsat−kepsの軌道要素より
      衛星の軌道情報を得る.
     JAMSATホームページ
               URL    http://www.jamsat.or.jp
       上記ホームページでは各地で行われるアマチュア通信衛星に関する
      ミューティングのお知らせや世界のアマチュア衛星に関する情報が
      満載されています.
   
 =========================================================================
       JAMSATのメンバーのご協力によりJH6MME(高山 秀造)が
    執筆・編集を担当しております.ご指摘の意見、疑問やこのようにしたら
    というアイデアがありましたら小さなことでもかまいませんので気軽に下
    記アドレスまでご連絡ください.jamsat−newsからjas2
    infoへの転載をJH4PHW局坂井さんに担当して頂いております.
                    E-mail : jh6mme@jamsat.or.jp : jh4phw@jamsat.or.jp
 ===============================   END  ===============================